Torna al catalogo

STARLINK-5287

AttivoComunicazioniVLEO
NORAD 55293·PAYLOAD·🇺🇸 United States

Lanciato Jan 19, 2023 da Vandenberg Space Force Base

Loading…

Prossimi Passaggi (prossime 24 ore)

TLE

AggiornatoSource: CelesTrak SupGP

Epoca: Sep 15, 2026, 01:31 UTC

1 55293C 23010AA  26258.06368056 -.00011048  00000+0 -92562-3 0  2587
2 55293  70.0000 266.9596 0003260 270.2193 172.3470 14.98347692    19

Traccia STARLINK-5287 in tempo reale con AllMySat

Download on the App Store